| time (UTC) | temp C | wind direction | speed KPH | gust KPH | rain 1hr cm | rain 24hr cm | rain mn cm | humidity % | barometer mb |
| 20260507103004 | 15 | 129 | 16.1 | 22.5 | 0.00 | 0.00 | 0.00 | 70 | 1015.8 |
| 20260507101004 | 15 | 118 | 12.9 | 27.4 | 0.00 | 0.00 | 0.00 | 74 | 1015.9 |
| 20260507100004 | 15 | 135 | 11.3 | 24.1 | 0.00 | 0.00 | 0.00 | 74 | 1015.8 |
| 20260507095004 | 15 | 142 | 14.5 | 29.0 | 0.00 | 0.00 | 0.00 | 76 | 1015.8 |
| 20260507094004 | 15 | 129 | 11.3 | 22.5 | 0.00 | 0.00 | 0.00 | 76 | 1015.8 |
| 20260507093006 | 14 | 135 | 16.1 | 24.1 | 0.00 | 0.00 | 0.00 | 76 | 1015.7 |
| 20260507092004 | 13 | 144 | 8.0 | 19.3 | 0.00 | 0.00 | 0.00 | 75 | 1015.9 |
| 20260507090007 | 14 | 137 | 9.7 | 19.3 | 0.00 | 0.00 | 0.00 | 80 | 1015.8 |
| 20260507085006 | 13 | 130 | 14.5 | 19.3 | 0.00 | 0.00 | 0.00 | 79 | 1015.8 |
| 20260507084006 | 13 | 130 | 11.3 | 24.1 | 0.00 | 0.00 | 0.00 | 79 | 1015.7 |
| 20260507082006 | 12 | 124 | 11.3 | 24.1 | 0.00 | 0.00 | 0.00 | 82 | 1015.6 |
| 20260507081006 | 12 | 145 | 9.7 | 22.5 | 0.00 | 0.00 | 0.00 | 83 | 1015.5 |
| 20260507080006 | 12 | 131 | 9.7 | 24.1 | 0.00 | 0.00 | 0.00 | 83 | 1015.5 |
| 20260507075006 | 12 | 132 | 16.1 | 24.1 | 0.00 | 0.00 | 0.00 | 83 | 1015.4 |
| 20260507074006 | 11 | 133 | 11.3 | 22.5 | 0.00 | 0.00 | 0.00 | 85 | 1015.4 |
| 20260507073006 | 11 | 132 | 12.9 | 24.1 | 0.00 | 0.00 | 0.00 | 87 | 1015.3 |
| 20260507072006 | 11 | 130 | 14.5 | 24.1 | 0.00 | 0.00 | 0.00 | 88 | 1015.2 |
| 20260507071006 | 11 | 129 | 14.5 | 24.1 | 0.00 | 0.00 | 0.00 | 92 | 1015.2 |
| 20260507070010 | 10 | 145 | 11.3 | 19.3 | 0.00 | 0.00 | 0.00 | 95 | 1015.1 |
| 20260507065007 | 10 | 142 | 11.3 | 19.3 | 0.00 | 0.00 | 0.00 | 96 | 1015.1 |
| 20260507063006 | 8 | 138 | 3.2 | 8.0 | 0.00 | 0.00 | 0.00 | 96 | 1015.2 |
| 20260507062006 | 7 | 136 | 3.2 | 4.8 | 0.00 | 0.00 | 0.00 | 96 | 1015.2 |
| 20260507061006 | 7 | 243 | 1.6 | 3.2 | 0.00 | 0.00 | 0.00 | 96 | 1015.2 |
| 20260507060006 | 7 | 267 | 1.6 | 3.2 | 0.00 | 0.00 | 0.00 | 96 | 1015.1 |
| 20260507055006 | 6 | 291 | 0.0 | 1.6 | 0.00 | 0.00 | 0.00 | 96 | 1015.0 |
| 20260507053006 | 5 | 291 | 0.0 | 0.0 | 0.00 | 0.00 | 0.00 | 95 | 1015.1 |
| 20260507052006 | 5 | 291 | 0.0 | 0.0 | 0.00 | 0.00 | 0.00 | 95 | 1015.0 |
| 20260507050006 | 5 | 291 | 0.0 | 0.0 | 0.00 | 0.00 | 0.00 | 93 | 1014.9 |
| 20260507045006 | 5 | 291 | 0.0 | 0.0 | 0.00 | 0.00 | 0.00 | 93 | 1014.8 |
| 20260507044007 | 5 | 291 | 0.0 | 0.0 | 0.00 | 0.00 | 0.00 | 93 | 1014.8 |
| 20260507043006 | 5 | 291 | 0.0 | 0.0 | 0.00 | 0.00 | 0.00 | 93 | 1014.7 |
| 20260507042006 | 5 | 291 | 0.0 | 0.0 | 0.00 | 0.00 | 0.00 | 93 | 1014.7 |
| 20260507041006 | 5 | 291 | 0.0 | 0.0 | 0.00 | 0.00 | 0.00 | 92 | 1014.6 |
| 20260507040006 | 5 | 291 | 0.0 | 0.0 | 0.00 | 0.00 | 0.00 | 92 | 1014.6 |
| 20260507035006 | 6 | 291 | 0.0 | 0.0 | 0.00 | 0.00 | 0.00 | 92 | 1014.6 |
| 20260507034006 | 6 | 291 | 0.0 | 0.0 | 0.00 | 0.00 | 0.00 | 93 | 1014.6 |
| 20260507031005 | 6 | 291 | 0.0 | 0.0 | 0.00 | 0.00 | 0.00 | 92 | 1014.5 |
| 20260507024005 | 6 | 291 | 0.0 | 0.0 | 0.00 | 0.00 | 0.00 | 90 | 1014.4 |
| 20260507023005 | 6 | 291 | 0.0 | 0.0 | 0.00 | 0.00 | 0.00 | 90 | 1014.3 |
| 20260507022006 | 6 | 291 | 0.0 | 0.0 | 0.00 | 0.00 | 0.00 | 91 | 1014.1 |
| 20260507021007 | 6 | 291 | 0.0 | 0.0 | 0.00 | 0.00 | 0.00 | 90 | 1013.9 |
| 20260507020005 | 6 | 291 | 0.0 | 0.0 | 0.00 | 0.00 | 0.00 | 88 | 1013.9 |
| 20260507015006 | 6 | 291 | 0.0 | 0.0 | 0.00 | 0.00 | 0.00 | 88 | 1013.9 |
| 20260507014004 | 6 | 291 | 0.0 | 0.0 | 0.00 | 0.00 | 0.00 | 88 | 1014.0 |
| 20260507013005 | 7 | 291 | 0.0 | 0.0 | 0.00 | 0.00 | 0.00 | 88 | 1013.9 |
| 20260507012005 | 7 | 291 | 0.0 | 0.0 | 0.00 | 0.00 | 0.00 | 87 | 1014.0 |
| 20260507010005 | 7 | 291 | 0.0 | 0.0 | 0.00 | 0.00 | 0.00 | 88 | 1014.1 |
| 20260507004005 | 7 | 291 | 0.0 | 0.0 | 0.00 | 0.00 | 0.00 | 85 | 1014.2 |
| 20260507003005 | 7 | 291 | 0.0 | 0.0 | 0.00 | 0.00 | 0.00 | 85 | 1014.2 |
| 20260507002006 | 7 | 291 | 0.0 | 0.0 | 0.00 | 0.00 | 0.00 | 85 | 1014.2 |
| 20260507001005 | 7 | 291 | 0.0 | 0.0 | 0.00 | 0.00 | 0.00 | 84 | 1014.3 |
| 20260507000006 | 8 | 291 | 0.0 | 0.0 | 0.00 | 0.00 | 0.00 | 84 | 1014.3 |
| 20260506235005 | 8 | 291 | 0.0 | 1.6 | 0.00 | 0.00 | 0.00 | 84 | 1014.2 |
| 20260506234005 | 8 | 291 | 0.0 | 1.6 | 0.00 | 0.00 | 0.00 | 83 | 1014.2 |
| 20260506233006 | 8 | 291 | 0.0 | 0.0 | 0.00 | 0.00 | 0.00 | 82 | 1014.2 |
| 20260506232005 | 8 | 291 | 0.0 | 0.0 | 0.00 | 0.00 | 0.00 | 82 | 1014.2 |
| 20260506231005 | 8 | 291 | 0.0 | 0.0 | 0.00 | 0.00 | 0.00 | 82 | 1014.2 |
| 20260506230005 | 9 | 291 | 0.0 | 0.0 | 0.00 | 0.00 | 0.00 | 82 | 1014.1 |
| 20260506224004 | 9 | 291 | 0.0 | 0.0 | 0.00 | 0.00 | 0.00 | 83 | 1014.1 |
| 20260506222005 | 10 | 291 | 0.0 | 0.0 | 0.00 | 0.00 | 0.00 | 83 | 1014.1 |
| 20260506221005 | 10 | 291 | 0.0 | 0.0 | 0.00 | 0.00 | 0.00 | 81 | 1014.0 |
| 20260506220005 | 10 | 291 | 0.0 | 1.6 | 0.00 | 0.00 | 0.00 | 81 | 1013.9 |
| 20260506215006 | 10 | 291 | 0.0 | 0.0 | 0.00 | 0.00 | 0.00 | 81 | 1013.8 |
| 20260506214005 | 10 | 291 | 0.0 | 1.6 | 0.00 | 0.00 | 0.00 | 81 | 1013.9 |
| 20260506213005 | 10 | 291 | 0.0 | 1.6 | 0.00 | 0.00 | 0.00 | 81 | 1014.0 |
| 20260506204005 | 11 | 294 | 0.0 | 0.0 | 0.00 | 0.00 | 0.00 | 77 | 1013.8 |
| 20260506203004 | 11 | 294 | 0.0 | 3.2 | 0.00 | 0.00 | 0.00 | 77 | 1013.7 |
| 20260506202005 | 11 | 294 | 0.0 | 1.6 | 0.00 | 0.00 | 0.00 | 77 | 1013.6 |
| 20260506201005 | 11 | 294 | 0.0 | 3.2 | 0.00 | 0.00 | 0.00 | 76 | 1013.6 |
| 20260506200005 | 11 | 297 | 0.0 | 1.6 | 0.00 | 0.00 | 0.00 | 75 | 1013.4 |
| 20260506195005 | 11 | 297 | 0.0 | 3.2 | 0.00 | 0.00 | 0.00 | 74 | 1013.3 |
| 20260506193005 | 11 | 298 | 0.0 | 3.2 | 0.00 | 0.00 | 0.00 | 74 | 1013.1 |
| 20260506192005 | 11 | 298 | 0.0 | 3.2 | 0.00 | 0.00 | 0.00 | 74 | 1013.1 |
| 20260506191006 | 11 | 298 | 0.0 | 4.8 | 0.00 | 0.00 | 0.00 | 74 | 1013.0 |
| 20260506190006 | 11 | 269 | 0.0 | 4.8 | 0.00 | 0.00 | 0.00 | 74 | 1013.0 |
| 20260506184005 | 12 | 288 | 1.6 | 4.8 | 0.00 | 0.00 | 0.00 | 75 | 1012.7 |
| 20260506183005 | 12 | 289 | 1.6 | 9.7 | 0.00 | 0.00 | 0.00 | 75 | 1012.7 |
| 20260506182005 | 12 | 307 | 3.2 | 9.7 | 0.00 | 0.00 | 0.00 | 76 | 1012.6 |
| 20260506181005 | 12 | 209 | 0.0 | 8.0 | 0.00 | 0.00 | 0.00 | 75 | 1012.5 |
| 20260506180005 | 12 | 202 | 1.6 | 14.5 | 0.00 | 0.00 | 0.00 | 73 | 1012.4 |
| 20260506175005 | 12 | 228 | 1.6 | 11.3 | 0.00 | 0.00 | 0.00 | 73 | 1012.3 |
| 20260506174004 | 12 | 209 | 1.6 | 11.3 | 0.00 | 0.00 | 0.00 | 72 | 1012.3 |
| 20260506173005 | 12 | 264 | 1.6 | 9.7 | 0.00 | 0.00 | 0.00 | 72 | 1012.2 |
| 20260506172004 | 12 | 224 | 1.6 | 4.8 | 0.00 | 0.00 | 0.00 | 71 | 1012.2 |
| 20260506171004 | 12 | 231 | 1.6 | 12.9 | 0.00 | 0.00 | 0.00 | 72 | 1012.2 |
| 20260506170004 | 13 | 209 | 1.6 | 11.3 | 0.00 | 0.00 | 0.00 | 71 | 1012.1 |
| 20260506165005 | 13 | 250 | 1.6 | 12.9 | 0.00 | 0.00 | 0.00 | 70 | 1012.2 |
| 20260506164004 | 13 | 248 | 3.2 | 14.5 | 0.00 | 0.00 | 0.00 | 69 | 1012.0 |
| 20260506163005 | 13 | 254 | 1.6 | 4.8 | 0.00 | 0.00 | 0.00 | 66 | 1012.0 |
| 20260506162005 | 14 | 243 | 1.6 | 8.0 | 0.00 | 0.00 | 0.00 | 61 | 1012.1 |
| 20260506161005 | 15 | 312 | 1.6 | 8.0 | 0.00 | 0.00 | 0.00 | 55 | 1012.1 |
| 20260506160005 | 15 | 340 | 1.6 | 11.3 | 0.00 | 0.00 | 0.00 | 54 | 1012.0 |
| 20260506155004 | 15 | 324 | 3.2 | 11.3 | 0.00 | 0.00 | 0.00 | 54 | 1012.1 |
| 20260506153004 | 15 | 310 | 1.6 | 8.0 | 0.00 | 0.00 | 0.00 | 53 | 1012.2 |
| 20260506152005 | 15 | 323 | 3.2 | 8.0 | 0.00 | 0.00 | 0.00 | 53 | 1012.0 |
| 20260506151004 | 15 | 328 | 1.6 | 4.8 | 0.00 | 0.00 | 0.00 | 54 | 1012.2 |
| 20260506150005 | 15 | 328 | 1.6 | 4.8 | 0.00 | 0.00 | 0.00 | 51 | 1012.2 |
| 20260506145004 | 15 | 0 | 1.6 | 4.8 | 0.00 | 0.00 | 0.00 | 51 | 1012.2 |
| 20260506144004 | 15 | 7 | 1.6 | 4.8 | 0.00 | 0.00 | 0.00 | 51 | 1012.3 |
| 20260506143004 | 15 | 14 | 1.6 | 4.8 | 0.00 | 0.00 | 0.00 | 49 | 1012.3 |
| 20260506141004 | 16 | 21 | 1.6 | 4.8 | 0.00 | 0.00 | 0.00 | 47 | 1012.3 |
| 20260506140004 | 16 | 24 | 1.6 | 8.0 | 0.00 | 0.00 | 0.00 | 46 | 1012.2 |
| 20260506134004 | 16 | 331 | 0.0 | 4.8 | 0.00 | 0.00 | 0.00 | 48 | 1012.3 |
| 20260506133004 | 16 | 342 | 3.2 | 4.8 | 0.00 | 0.00 | 0.00 | 48 | 1012.4 |
| 20260506132005 | 17 | 10 | 3.2 | 9.7 | 0.00 | 0.00 | 0.00 | 47 | 1012.4 |
| 20260506130005 | 16 | 12 | 3.2 | 8.0 | 0.00 | 0.00 | 0.00 | 51 | 1012.3 |
| 20260506125004 | 17 | 11 | 3.2 | 11.3 | 0.00 | 0.00 | 0.00 | 49 | 1012.4 |
| 20260506124004 | 17 | 356 | 3.2 | 9.7 | 0.00 | 0.00 | 0.00 | 50 | 1012.3 |
| 20260506121004 | 16 | 339 | 8.0 | 16.1 | 0.00 | 0.00 | 0.00 | 52 | 1012.4 |
| 20260506120004 | 16 | 336 | 4.8 | 12.9 | 0.00 | 0.00 | 0.00 | 52 | 1012.5 |
| 20260506115004 | 16 | 4 | 1.6 | 8.0 | 0.00 | 0.00 | 0.00 | 50 | 1012.5 |
| 20260506114004 | 16 | 21 | 3.2 | 9.7 | 0.00 | 0.00 | 0.00 | 52 | 1012.5 |
| 20260506113004 | 16 | 17 | 4.8 | 12.9 | 0.00 | 0.00 | 0.00 | 52 | 1012.5 |
| 20260506112004 | 16 | 4 | 3.2 | 9.7 | 0.00 | 0.00 | 0.00 | 52 | 1012.5 |
| 20260506110006 | 16 | 5 | 1.6 | 8.0 | 0.00 | 0.00 | 0.00 | 56 | 1012.6 |
| 20260506105004 | 16 | 356 | 3.2 | 8.0 | 0.00 | 0.00 | 0.00 | 52 | 1012.6 |
| 20260506104006 | 16 | 349 | 3.2 | 8.0 | 0.00 | 0.00 | 0.00 | 54 | 1012.6 |